Location: Devore Heights
(34.2372°N, 117.4156°W)
Time: 01:19:29
(UTC+00:00)

Altair - Pass Details

Date: 22 September 2024
Orbit: 1501 x 1682 km, 47.2° (Epoch: 09 October)

Event Time Altitude Azimuth Distance (km) Brightness Sun altitude
Exits shadow 08:51:55 34° 42° (NE) 2,501 8.7 -52.0°
Drops below altitude 10° 08:57:00 10° 53° (NE) 3,938 10.0 -51.5°
Sets 09:00:15 0° 56° (NE) 4,935 10.7 -51.1°
